DLH4MW EDDF-EDDM

Flight info

Callsign DLH4MW
Flight time N/A
Altitude 23000
Route CINDY8S/18 CINDY Z74 HAREM T104 ROKIL ROKIL1B
Aircraft B789/H-SADFGHIJ1J2J3J4J5LOP1P2RWXYZ/LB1D1

Departure

Time 2026-04-14 13:11
Airport Frankfurt Main Airport (EDDF)

Arrival

Time N/A
Airport Munich Airport (EDDM)
Time Latitude Longitude Altitude Speed Heading
2026-04-14 12:39 50.04800 8.56922 368 ft 0 kts 295°
2026-04-14 12:59 50.04791 8.56956 369 ft 4 kts 284°
2026-04-14 12:59 50.04787 8.56995 368 ft 4 kts 262°
2026-04-14 12:59 50.04795 8.57028 368 ft 4 kts 227°
2026-04-14 12:59 50.04806 8.57043 368 ft 0 kts 205°
2026-04-14 13:02 50.04796 8.57036 368 ft 7 kts 205°
2026-04-14 13:03 50.04724 8.56984 370 ft 14 kts 205°
2026-04-14 13:03 50.04626 8.56917 371 ft 17 kts 200°
2026-04-14 13:03 50.04510 8.56875 368 ft 18 kts 195°
2026-04-14 13:03 50.04433 8.56751 372 ft 17 kts 250°
2026-04-14 13:04 50.04384 8.56543 371 ft 22 kts 249°
2026-04-14 13:04 50.04328 8.56314 370 ft 23 kts 249°
2026-04-14 13:04 50.04271 8.56071 371 ft 25 kts 250°
2026-04-14 13:04 50.04210 8.55814 371 ft 26 kts 248°
2026-04-14 13:05 50.04145 8.55549 372 ft 26 kts 250°
2026-04-14 13:05 50.04084 8.55288 370 ft 27 kts 250°
2026-04-14 13:05 50.04018 8.55014 370 ft 28 kts 250°
2026-04-14 13:05 50.03954 8.54745 370 ft 25 kts 249°
2026-04-14 13:06 50.03892 8.54489 371 ft 24 kts 250°
2026-04-14 13:06 50.03822 8.54284 372 ft 21 kts 236°
2026-04-14 13:06 50.03764 8.54070 370 ft 22 kts 250°
2026-04-14 13:06 50.03708 8.53837 372 ft 24 kts 250°
2026-04-14 13:07 50.03649 8.53592 373 ft 24 kts 249°
2026-04-14 13:07 50.03588 8.53344 371 ft 25 kts 249°
2026-04-14 13:07 50.03526 8.53085 372 ft 25 kts 250°
2026-04-14 13:07 50.03482 8.52905 372 ft 15 kts 248°
2026-04-14 13:08 50.03443 8.52761 370 ft 14 kts 246°
2026-04-14 13:08 50.03414 8.52646 372 ft 10 kts 248°
2026-04-14 13:08 50.03366 8.52593 375 ft 9 kts 183°
2026-04-14 13:08 50.03353 8.52593 374 ft 0 kts 179°
2026-04-14 13:10 50.03281 8.52594 375 ft 33 kts 179°
2026-04-14 13:10 50.02803 8.52599 369 ft 103 kts 179°
2026-04-14 13:10 50.01870 8.52608 368 ft 163 kts 180°
2026-04-14 13:11 50.00661 8.52649 827 ft 178 kts 174°
2026-04-14 13:11 49.99422 8.52675 1656 ft 177 kts 179°
2026-04-14 13:11 49.98584 8.52666 2008 ft 186 kts 180°
2026-04-14 13:11 49.97232 8.52726 2326 ft 203 kts 173°
2026-04-14 13:12 49.95976 8.53900 2418 ft 226 kts 130°
2026-04-14 13:12 49.95232 8.56119 2983 ft 231 kts 109°
2026-04-14 13:12 49.94588 8.58409 3761 ft 231 kts 113°
2026-04-14 13:12 49.94042 8.60740 4264 ft 237 kts 96°
2026-04-14 13:13 49.93966 8.63368 4738 ft 251 kts 90°
2026-04-14 13:13 49.93873 8.66063 5420 ft 259 kts 91°
2026-04-14 13:13 49.93555 8.68839 6058 ft 271 kts 111°
2026-04-14 13:13 49.92373 8.71147 6821 ft 277 kts 137°
2026-04-14 13:14 49.90813 8.72902 7627 ft 278 kts 144°
2026-04-14 13:14 49.89194 8.74577 8376 ft 281 kts 145°
2026-04-14 13:14 49.87890 8.76836 9002 ft 285 kts 118°
2026-04-14 13:14 49.86988 8.79549 9875 ft 283 kts 119°
2026-04-14 13:15 49.86028 8.82233 10552 ft 288 kts 121°
2026-04-14 13:15 49.85006 8.84989 10988 ft 303 kts 121°
2026-04-14 13:15 49.83939 8.87902 11392 ft 319 kts 121°
2026-04-14 13:15 49.82832 8.90971 11808 ft 334 kts 120°
2026-04-14 13:16 49.81674 8.94177 12292 ft 347 kts 121°
2026-04-14 13:16 49.80479 8.97459 13004 ft 352 kts 121°
2026-04-14 13:16 49.79267 9.00780 13737 ft 357 kts 121°
2026-04-14 13:16 49.78042 9.04137 14414 ft 362 kts 121°
2026-04-14 13:17 49.76797 9.07552 15073 ft 366 kts 121°
2026-04-14 13:17 49.75816 9.11208 15613 ft 373 kts 107°
2026-04-14 13:17 49.75198 9.15123 16290 ft 375 kts 103°
2026-04-14 13:17 49.74408 9.18973 16806 ft 379 kts 117°
2026-04-14 13:18 49.72905 9.22304 17481 ft 379 kts 131°
2026-04-14 13:18 49.71122 9.25329 18182 ft 381 kts 135°
2026-04-14 13:18 49.69268 9.28269 18748 ft 385 kts 135°
2026-04-14 13:18 49.67474 9.31370 19286 ft 388 kts 131°
2026-04-14 13:19 49.65741 9.34592 19851 ft 391 kts 131°
2026-04-14 13:19 49.63973 9.37782 20386 ft 393 kts 133°
2026-04-14 13:19 49.62144 9.40939 20930 ft 395 kts 133°
2026-04-14 13:19 49.60321 9.44097 21596 ft 394 kts 133°
2026-04-14 13:20 49.58516 9.47290 22133 ft 396 kts 133°
2026-04-14 13:20 49.56708 9.50497 22471 ft 397 kts 133°
2026-04-14 13:20 49.54893 9.53676 22724 ft 393 kts 133°
2026-04-14 13:20 49.53088 9.56821 22981 ft 392 kts 133°
2026-04-14 13:21 49.51280 9.59979 23151 ft 394 kts 133°
2026-04-14 13:21 49.49470 9.63148 23163 ft 393 kts 133°
2026-04-14 13:21 49.47669 9.66295 23164 ft 391 kts 133°
2026-04-14 13:21 49.45872 9.69424 23167 ft 391 kts 133°
2026-04-14 13:22 49.44080 9.72540 23170 ft 391 kts 133°
2026-04-14 13:22 49.42271 9.75685 23174 ft 391 kts 133°
2026-04-14 13:22 49.40495 9.78771 23174 ft 390 kts 133°
2026-04-14 13:22 49.38698 9.81888 23181 ft 390 kts 133°
2026-04-14 13:23 49.36906 9.84990 23177 ft 386 kts 133°
2026-04-14 13:23 49.35107 9.88093 23180 ft 391 kts 133°
2026-04-14 13:23 49.33302 9.91206 23182 ft 390 kts 133°
2026-04-14 13:23 49.31498 9.94316 23184 ft 390 kts 133°
2026-04-14 13:24 49.29698 9.97413 23183 ft 391 kts 133°
2026-04-14 13:24 49.26091 10.03608 23178 ft 391 kts 133°
2026-04-14 13:24 49.24278 10.06716 23178 ft 391 kts 133°
2026-04-14 13:25 49.22466 10.09820 23178 ft 391 kts 133°
2026-04-14 13:25 49.20651 10.12927 23179 ft 391 kts 133°
2026-04-14 13:26 49.15231 10.22200 23171 ft 389 kts 133°
2026-04-14 13:26 49.13388 10.25208 23178 ft 388 kts 136°
2026-04-14 13:26 49.11510 10.28187 23176 ft 390 kts 134°
2026-04-14 13:26 49.09681 10.31244 23180 ft 390 kts 134°
2026-04-14 13:27 49.07833 10.34266 23175 ft 390 kts 135°
2026-04-14 13:27 49.05958 10.37232 23176 ft 389 kts 135°
2026-04-14 13:27 49.04077 10.40218 23177 ft 389 kts 135°
2026-04-14 13:27 49.02224 10.43206 23176 ft 389 kts 134°
2026-04-14 13:28 49.00377 10.46185 23175 ft 388 kts 135°
2026-04-14 13:28 48.98533 10.49128 22994 ft 378 kts 135°
2026-04-14 13:28 48.96719 10.52007 22563 ft 375 kts 135°
2026-04-14 13:28 48.94921 10.54866 22142 ft 373 kts 135°
2026-04-14 13:29 48.93135 10.57715 21741 ft 371 kts 135°
2026-04-14 13:29 48.91358 10.60545 21329 ft 369 kts 135°
2026-04-14 13:29 48.89595 10.63344 20941 ft 366 kts 135°
2026-04-14 13:29 48.87833 10.66137 20564 ft 364 kts 135°
2026-04-14 13:30 48.86083 10.68911 20201 ft 362 kts 135°
2026-04-14 13:30 48.84344 10.71667 19828 ft 361 kts 135°
2026-04-14 13:30 48.82615 10.74402 19470 ft 359 kts 135°
2026-04-14 13:30 48.80886 10.77131 19101 ft 357 kts 135°
2026-04-14 13:31 48.79166 10.79838 18749 ft 355 kts 135°
2026-04-14 13:31 48.77451 10.82527 18378 ft 354 kts 135°
2026-04-14 13:31 48.75748 10.85198 17986 ft 352 kts 135°
2026-04-14 13:31 48.74051 10.87859 17636 ft 350 kts 135°
2026-04-14 13:32 48.72359 10.90508 17253 ft 348 kts 135°
2026-04-14 13:32 48.70682 10.93131 16914 ft 346 kts 135°
2026-04-14 13:32 48.69014 10.95737 16565 ft 344 kts 135°
2026-04-14 13:32 48.67351 10.98327 16318 ft 340 kts 135°
2026-04-14 13:33 48.65712 11.00876 16228 ft 340 kts 135°
2026-04-14 13:33 48.64053 11.03454 15976 ft 343 kts 135°
2026-04-14 13:33 48.62398 11.06025 15630 ft 338 kts 135°
2026-04-14 13:33 48.60774 11.08550 15217 ft 332 kts 135°
2026-04-14 13:34 48.57551 11.13371 14381 ft 323 kts 143°
2026-04-14 13:34 48.55682 11.15257 13998 ft 323 kts 148°
2026-04-14 13:34 48.53854 11.17208 13555 ft 322 kts 140°
2026-04-14 13:35 48.52560 11.19946 13225 ft 321 kts 117°
2026-04-14 13:35 48.52017 11.23183 12985 ft 322 kts 95°
2026-04-14 13:35 48.52274 11.26471 12719 ft 310 kts 78°
2026-04-14 13:35 48.52747 11.29624 12411 ft 306 kts 78°
2026-04-14 13:36 48.53059 11.31680 12218 ft 303 kts 78°
2026-04-14 13:36 48.53217 11.32755 12109 ft 301 kts 78°
2026-04-14 13:36 48.53510 11.34819 11880 ft 300 kts 79°
2026-04-14 13:37 48.53937 11.37889 11541 ft 297 kts 78°
2026-04-14 13:37 48.54365 11.40923 11218 ft 295 kts 78°
2026-04-14 13:37 48.54796 11.43944 10870 ft 293 kts 78°
2026-04-14 13:37 48.55222 11.46939 10561 ft 291 kts 78°
2026-04-14 13:38 48.55641 11.49913 10243 ft 289 kts 78°
2026-04-14 13:38 48.56056 11.52869 9905 ft 287 kts 78°
2026-04-14 13:38 48.56469 11.55798 9634 ft 283 kts 78°
2026-04-14 13:38 48.56874 11.58680 9423 ft 282 kts 78°
2026-04-14 13:39 48.57277 11.61558 9225 ft 283 kts 78°
2026-04-14 13:39 48.57688 11.64498 8998 ft 282 kts 78°
2026-04-14 13:39 48.57877 11.67380 8738 ft 281 kts 91°
2026-04-14 13:39 48.57896 11.70325 8556 ft 281 kts 89°
2026-04-14 13:40 48.57926 11.73272 8351 ft 280 kts 89°